When you browse on this site, cookies collect data to enhance your experience and personalize the content and advertising you see.
Visit our Privacy Policy to learn more. By continuing to use the site, you agree to this use of cookies and data.
EN

Hourly Weather Yasenok

Today, 11 August, Tuesday

Time Temperature Precipitation Wind Pressure Humidity
00:00 +20°C° 0 mm 1 mps 745 mmHg 74%
01:00 +19°C° 0 mm 1 mps 745 mmHg 75%
02:00 +18°C° 0 mm 2 mps 745 mmHg 77%
03:00 +18°C° 0 mm 2 mps 745 mmHg 78%
04:00 +18°C° 0 mm 1 mps 745 mmHg 80%
05:00 +18°C° 0 mm 1 mps 745 mmHg 81%
06:00 +19°C° 0 mm 2 mps 745 mmHg 75%
07:00 +21°C° 0 mm 2 mps 745 mmHg 68%
08:00 +23°C° 0 mm 2 mps 745 mmHg 62%
09:00 +25°C° 0 mm 2 mps 745 mmHg 57%
10:00 +26°C° 0 mm 2 mps 745 mmHg 51%
11:00 +27°C° 0 mm 2 mps 745 mmHg 46%
12:00 +28°C° 0 mm 2 mps 745 mmHg 45%
13:00 +28°C° 0 mm 2 mps 745 mmHg 44%
14:00 +28°C° 0 mm 1 mps 744 mmHg 42%
15:00 +28°C° 0 mm 2 mps 744 mmHg 45%
16:00 +28°C° 0 mm 2 mps 744 mmHg 48%
17:00 +27°C° 0 mm 2 mps 744 mmHg 50%
18:00 +25°C° 0.2 mm 2 mps 744 mmHg 59%
19:00 +23°C° 0.2 mm 2 mps 744 mmHg 68%
20:00 +20°C° 0.2 mm 2 mps 744 mmHg 77%
21:00 +20°C° 0 mm 2 mps 744 mmHg 80%
22:00 +19°C° 0 mm 2 mps 744 mmHg 83%
23:00 +18°C° 0 mm 2 mps 744 mmHg 87%

Tomorrow, 12 August, Wednesday

Time Temperature Precipitation Wind Pressure Humidity
00:00 +18°C° 0.1 mm 2 mps 744 mmHg 89%
01:00 +17°C° 0.1 mm 2 mps 743 mmHg 92%
02:00 +16°C° 0.1 mm 3 mps 743 mmHg 94%
03:00 +16°C° 0 mm 3 mps 743 mmHg 93%
04:00 +14°C° 0 mm 3 mps 744 mmHg 92%
05:00 +14°C° 0 mm 4 mps 744 mmHg 91%
06:00 +15°C° 0 mm 4 mps 744 mmHg 85%
07:00 +17°C° 0 mm 4 mps 744 mmHg 78%
08:00 +17°C° 0 mm 5 mps 744 mmHg 72%
09:00 +20°C° 0 mm 5 mps 744 mmHg 65%
10:00 +21°C° 0 mm 5 mps 745 mmHg 58%
11:00 +22°C° 0 mm 5 mps 745 mmHg 51%
12:00 +22°C° 0 mm 5 mps 745 mmHg 50%
13:00 +22°C° 0 mm 5 mps 745 mmHg 50%
14:00 +22°C° 0 mm 5 mps 745 mmHg 49%
15:00 +22°C° 0 mm 5 mps 745 mmHg 51%
16:00 +21°C° 0 mm 5 mps 745 mmHg 53%
17:00 +20°C° 0 mm 4 mps 746 mmHg 54%
18:00 +19°C° 0 mm 4 mps 746 mmHg 62%
19:00 +17°C° 0 mm 3 mps 746 mmHg 69%
20:00 +14°C° 0 mm 3 mps 746 mmHg 77%
21:00 +14°C° 0 mm 3 mps 746 mmHg 80%
22:00 +13°C° 0 mm 3 mps 746 mmHg 84%
23:00 +12°C° 0 mm 3 mps 746 mmHg 87%

Day after tomorrow, 13 August, Thursday

Time Temperature Precipitation Wind Pressure Humidity
00:00 +12°C° 0 mm 3 mps 746 mmHg 90%
01:00 +11°C° 0 mm 3 mps 746 mmHg 92%
02:00 +11°C° 0 mm 3 mps 746 mmHg 95%
03:00 +11°C° 0 mm 3 mps 746 mmHg 95%
04:00 +11°C° 0 mm 3 mps 746 mmHg 96%
05:00 +11°C° 0 mm 3 mps 746 mmHg 96%
06:00 +12°C° 0 mm 4 mps 746 mmHg 86%
07:00 +14°C° 0 mm 4 mps 746 mmHg 76%
08:00 +16°C° 0 mm 5 mps 746 mmHg 66%
09:00 +17°C° 0 mm 5 mps 746 mmHg 61%
10:00 +20°C° 0 mm 5 mps 746 mmHg 55%
11:00 +21°C° 0 mm 6 mps 746 mmHg 50%
12:00 +22°C° 0.1 mm 5 mps 746 mmHg 48%
13:00 +22°C° 0.1 mm 5 mps 746 mmHg 47%
14:00 +22°C° 0.1 mm 5 mps 746 mmHg 46%
15:00 +22°C° 0 mm 5 mps 746 mmHg 47%
16:00 +21°C° 0 mm 5 mps 746 mmHg 49%
17:00 +21°C° 0 mm 4 mps 746 mmHg 50%
18:00 +19°C° 0 mm 4 mps 746 mmHg 58%
19:00 +18°C° 0 mm 3 mps 746 mmHg 66%
20:00 +16°C° 0 mm 3 mps 746 mmHg 75%
21:00 +14°C° 0 mm 3 mps 746 mmHg 79%
22:00 +14°C° 0 mm 2 mps 746 mmHg 83%
23:00 +14°C° 0 mm 2 mps 746 mmHg 87%

14 August, Friday

Time Temperature Precipitation Wind Pressure Humidity
00:00 +13°C° 0 mm 2 mps 746 mmHg 89%
01:00 +12°C° 0 mm 2 mps 746 mmHg 92%
02:00 +12°C° 0 mm 2 mps 746 mmHg 94%
03:00 +10°C° 0 mm 2 mps 746 mmHg 95%
04:00 +10°C° 0 mm 2 mps 746 mmHg 95%
05:00 +10°C° 0 mm 2 mps 746 mmHg 96%
06:00 +12°C° 0 mm 3 mps 746 mmHg 86%
07:00 +13°C° 0 mm 4 mps 746 mmHg 76%
08:00 +15°C° 0 mm 4 mps 746 mmHg 66%
09:00 +18°C° 0 mm 4 mps 746 mmHg 60%
10:00 +19°C° 0 mm 4 mps 746 mmHg 54%
11:00 +20°C° 0 mm 4 mps 747 mmHg 47%
12:00 +20°C° 0 mm 5 mps 746 mmHg 48%
13:00 +20°C° 0 mm 5 mps 746 mmHg 48%
14:00 +20°C° 0 mm 5 mps 746 mmHg 49%
15:00 +19°C° 0 mm 5 mps 746 mmHg 48%
16:00 +19°C° 0 mm 4 mps 747 mmHg 48%
17:00 +19°C° 0 mm 4 mps 747 mmHg 47%
18:00 +17°C° 0 mm 4 mps 747 mmHg 54%
19:00 +16°C° 0 mm 3 mps 747 mmHg 60%
20:00 +14°C° 0 mm 2 mps 747 mmHg 67%
21:00 +13°C° 0 mm 2 mps 748 mmHg 69%
22:00 +12°C° 0 mm 2 mps 748 mmHg 71%
23:00 +12°C° 0 mm 2 mps 748 mmHg 73%

15 August, Saturday

Time Temperature Precipitation Wind Pressure Humidity
00:00 +12°C° 0 mm 2 mps 748 mmHg 76%
01:00 +10°C° 0 mm 2 mps 748 mmHg 79%
02:00 +10°C° 0 mm 2 mps 748 mmHg 81%
03:00 +10°C° 0 mm 2 mps 748 mmHg 83%
04:00 +9°C° 0 mm 2 mps 748 mmHg 85%
05:00 +9°C° 0 mm 2 mps 748 mmHg 86%
06:00 +12°C° 0 mm 2 mps 748 mmHg 77%
07:00 +14°C° 0 mm 3 mps 748 mmHg 69%
08:00 +17°C° 0 mm 3 mps 749 mmHg 60%
09:00 +18°C° 0 mm 3 mps 749 mmHg 54%
10:00 +19°C° 0 mm 3 mps 749 mmHg 47%
11:00 +21°C° 0 mm 3 mps 749 mmHg 41%
12:00 +21°C° 0 mm 3 mps 749 mmHg 41%
13:00 +21°C° 0 mm 4 mps 748 mmHg 42%
14:00 +21°C° 0 mm 4 mps 748 mmHg 42%
15:00 +21°C° 0 mm 3 mps 748 mmHg 44%
16:00 +21°C° 0 mm 3 mps 748 mmHg 46%
17:00 +21°C° 0 mm 3 mps 748 mmHg 47%
18:00 +19°C° 0 mm 3 mps 748 mmHg 55%
19:00 +17°C° 0 mm 2 mps 748 mmHg 62%
20:00 +15°C° 0 mm 2 mps 748 mmHg 69%
21:00 +15°C° 0 mm 2 mps 748 mmHg 72%
22:00 +14°C° 0 mm 2 mps 748 mmHg 75%
23:00 +14°C° 0 mm 2 mps 748 mmHg 78%

16 August, Sunday

Time Temperature Precipitation Wind Pressure Humidity
00:00 +13°C° 0 mm 2 mps 748 mmHg 80%
01:00 +13°C° 0 mm 2 mps 748 mmHg 82%
02:00 +13°C° 0 mm 2 mps 748 mmHg 84%
03:00 +12°C° 0 mm 2 mps 748 mmHg 85%
04:00 +12°C° 0 mm 2 mps 748 mmHg 87%
05:00 +12°C° 0 mm 2 mps 748 mmHg 88%
06:00 +14°C° 0 mm 2 mps 748 mmHg 79%
07:00 +16°C° 0 mm 3 mps 748 mmHg 70%
08:00 +19°C° 0 mm 3 mps 748 mmHg 60%
09:00 +20°C° 0 mm 3 mps 748 mmHg 55%
10:00 +21°C° 0 mm 3 mps 748 mmHg 50%
11:00 +24°C° 0 mm 3 mps 748 mmHg 45%
12:00 +24°C° 0.1 mm 3 mps 748 mmHg 45%
13:00 +24°C° 0.1 mm 3 mps 748 mmHg 45%
14:00 +23°C° 0.1 mm 4 mps 747 mmHg 45%
15:00 +23°C° 0 mm 4 mps 747 mmHg 48%
16:00 +22°C° 0 mm 4 mps 747 mmHg 50%
17:00 +22°C° 0 mm 4 mps 747 mmHg 53%
18:00 +20°C° 0 mm 3 mps 747 mmHg 62%
19:00 +18°C° 0 mm 3 mps 747 mmHg 71%
20:00 +16°C° 0 mm 2 mps 747 mmHg 79%
21:00 +16°C° 0 mm 2 mps 747 mmHg 82%
22:00 +15°C° 0 mm 2 mps 747 mmHg 84%
23:00 +15°C° 0 mm 1 mps 747 mmHg 86%
Show more